Date String (YYYY-MM-DD hh:mm:ss) UTC,Instrument flags,Ambient pressure (hPa),Sample flow (lpm),Bypass flow (lpm),Sample temperature (°C),Ambient temperature (°C),ASC tube jacket temperature (°C),LED temperature (°C),Box temperature (°C),Sample RH (%),Span deviation,Mass concentration (μg/m³),Mass concentration (μg/m³),Mass concentration (μg/m³)
DateTimeUTC,F1_M11,P_M11,Q1_M11,Q2_M11,T1_M11,T2_M11,T3_M11,T4_M11,T5_M11,U1_M11,ZSPAN_M11,X0_M11,X2_M11,X1_M11
2021-12-21 15:00:00,,0822.9,4.98,0.00,22.3,21.5,00.0,31.4,24.0,06.9,0000.0,0001.29,0000.37,0000.28
2021-12-21 15:01:00,,0822.8,5.01,0.00,22.3,21.5,00.0,31.4,23.9,06.9,0000.0,0001.88,0000.40,0000.28
2021-12-21 15:02:00,,0822.9,4.99,0.00,22.3,21.5,00.0,31.3,23.9,07.0,0000.0,0001.91,0000.41,0000.29
2021-12-21 15:03:00,,0822.8,5.01,0.00,22.3,21.5,00.0,31.3,23.9,07.0,0000.0,0002.07,0000.40,0000.28
2021-12-21 15:04:00,,0822.8,5.00,0.00,22.2,21.5,00.0,31.3,23.9,07.0,0000.0,0003.19,0000.40,0000.28
2021-12-21 15:05:00,,0822.8,5.00,0.00,22.2,21.5,00.0,31.3,23.9,07.0,0000.0,0003.15,0000.38,0000.27
2021-12-21 15:06:00,,0822.8,4.99,0.00,22.2,21.4,00.0,31.3,23.8,07.0,0000.0,0003.16,0000.38,0000.27
2021-12-21 15:07:00,,0822.8,5.01,0.00,22.2,21.4,00.0,31.3,23.8,07.0,0000.0,0003.15,0000.38,0000.26
2021-12-21 15:08:00,,0822.8,4.99,0.00,22.2,21.4,00.0,31.3,23.8,07.0,0000.0,0003.01,0000.37,0000.26
2021-12-21 15:09:00,,0822.7,5.01,0.00,22.2,21.4,00.0,31.2,23.8,07.1,0000.0,0003.04,0000.37,0000.26
2021-12-21 15:10:00,,0822.8,4.99,0.00,22.1,21.4,00.0,31.2,23.8,07.1,0000.0,0003.04,0000.37,0000.26
2021-12-21 15:11:00,,0822.8,5.00,0.00,22.1,21.4,00.0,31.2,23.7,07.1,0000.0,0002.63,0000.38,0000.26
2021-12-21 15:12:00,,0822.8,5.01,0.00,22.1,21.4,00.0,31.2,23.8,07.1,0000.0,0002.15,0000.39,0000.26
2021-12-21 15:13:00,,0822.7,4.98,0.00,22.1,21.4,00.0,31.2,23.7,07.1,0000.0,0002.13,0000.38,0000.26
2021-12-21 15:14:00,,0822.7,5.01,0.00,22.1,21.4,00.0,31.2,23.8,07.1,0000.0,0001.89,0000.37,0000.26
2021-12-21 15:15:00,,0822.7,4.99,0.00,22.1,21.4,00.0,31.2,23.8,07.1,0000.0,0000.75,0000.37,0000.26
2021-12-21 15:16:00,,0822.6,5.00,0.00,22.1,21.4,00.0,31.2,23.7,07.2,0000.0,0001.33,0000.38,0000.27
2021-12-21 15:17:00,,0822.8,5.00,0.00,22.1,21.4,00.0,31.2,23.7,07.2,0000.0,0002.43,0000.38,0000.26
2021-12-21 15:18:00,,0822.8,5.00,0.00,22.1,21.4,00.0,31.2,23.8,07.2,0000.0,0002.44,0000.38,0000.27
2021-12-21 15:19:00,,0822.7,5.00,0.00,22.1,21.4,00.0,31.2,23.8,07.2,0000.0,0002.46,0000.40,0000.28
2021-12-21 15:20:00,,0822.7,4.99,0.00,22.1,21.5,00.0,31.2,23.8,07.2,0000.0,0002.23,0000.39,0000.28
2021-12-21 15:21:00,,0822.7,5.01,0.00,22.1,21.5,00.0,31.2,23.8,07.2,0000.0,0002.22,0000.39,0000.28
2021-12-21 15:22:00,,0822.8,5.01,0.00,22.1,21.5,00.0,31.2,23.8,07.2,0000.0,0002.61,0000.38,0000.28
2021-12-21 15:23:00,,0822.8,4.99,0.00,22.1,21.5,00.0,31.1,23.8,07.2,0000.0,0003.47,0000.40,0000.28
2021-12-21 15:24:00,,0822.9,4.98,0.00,22.1,21.5,00.0,31.1,23.8,07.2,0000.0,0003.53,0000.42,0000.28
2021-12-21 15:25:00,,0822.8,5.01,0.00,22.1,21.5,00.0,31.1,23.8,07.2,0000.0,0003.57,0000.44,0000.29
2021-12-21 15:26:00,,0822.7,4.99,0.00,22.1,21.5,00.0,31.1,23.8,07.2,0000.0,0003.64,0000.44,0000.29
2021-12-21 15:27:00,,0822.6,5.01,0.00,22.1,21.4,00.0,31.1,23.8,07.2,0000.0,0003.26,0000.42,0000.28
2021-12-21 15:28:00,,0822.7,5.00,0.00,22.1,21.4,00.0,31.1,23.8,07.1,0000.0,0002.62,0000.41,0000.28
2021-12-21 15:29:00,,0822.8,5.01,0.00,22.1,21.4,00.0,31.1,23.8,07.2,0000.0,0003.36,0000.43,0000.28
2021-12-21 15:30:00,,0822.7,4.99,0.00,22.1,21.4,00.0,31.1,23.8,07.2,0000.0,0003.43,0000.44,0000.27
2021-12-21 15:31:00,,0822.8,5.00,0.00,22.1,21.4,00.0,31.1,23.8,07.2,0000.0,0003.41,0000.44,0000.27
2021-12-21 15:32:00,,0823.0,5.00,0.00,22.1,21.4,00.0,31.1,23.7,07.2,0000.0,0003.47,0000.45,0000.27
2021-12-21 15:33:00,,0822.8,4.99,0.00,22.1,21.4,00.0,31.1,23.7,07.2,0000.0,0003.12,0000.45,0000.28
2021-12-21 15:34:00,,0823.0,5.02,0.00,22.1,21.4,00.0,31.1,23.7,07.2,0000.0,0002.27,0000.43,0000.27
2021-12-21 15:35:00,,0823.0,5.00,0.00,22.1,21.4,00.0,31.1,23.7,07.2,0000.0,0002.20,0000.41,0000.27
2021-12-21 15:36:00,,0822.9,5.01,0.00,22.1,21.4,00.0,31.1,23.7,07.2,0000.0,0002.16,0000.38,0000.26
2021-12-21 15:37:00,,0822.8,4.98,0.00,22.0,21.4,00.0,31.1,23.7,07.2,0000.0,0002.08,0000.38,0000.26
2021-12-21 15:38:00,,0822.9,4.99,0.00,22.0,21.4,00.0,31.1,23.7,07.2,0000.0,0002.18,0000.40,0000.26
2021-12-21 15:39:00,,0822.9,5.02,0.00,22.0,21.4,00.0,31.1,23.7,07.2,0000.0,0002.78,0000.41,0000.28
2021-12-21 15:40:00,,0822.8,4.99,0.00,22.0,21.4,00.0,31.1,23.7,07.3,0000.0,0002.02,0000.41,0000.28
2021-12-21 15:41:00,,0822.9,5.00,0.00,22.0,21.4,00.0,31.1,23.8,07.3,0000.0,0001.93,0000.39,0000.28
2021-12-21 15:42:00,,0822.3,5.00,0.00,22.1,21.4,00.0,31.1,23.8,07.2,0000.0,0002.01,0000.40,0000.28
2021-12-21 15:43:00,,0822.6,5.01,0.00,22.1,21.4,00.0,31.1,23.8,07.1,0000.0,0002.20,0000.40,0000.28
2021-12-21 15:44:00,,0822.6,4.99,0.00,22.1,21.4,00.0,31.1,23.7,07.3,0000.0,0002.30,0000.39,0000.27
2021-12-21 15:45:00,,0822.5,5.01,0.00,22.1,21.4,00.0,31.1,23.7,07.2,0000.0,0002.31,0000.40,0000.28
2021-12-21 15:46:00,,0822.6,4.98,0.00,22.0,21.4,00.0,31.1,23.7,07.2,0000.0,0002.35,0000.41,0000.28
2021-12-21 15:47:00,,0822.7,5.01,0.00,22.1,21.3,00.0,31.1,23.7,07.2,0000.0,0002.39,0000.43,0000.28
2021-12-21 15:48:00,,0822.7,5.01,0.00,22.1,21.4,00.0,31.1,23.7,07.2,0000.0,0002.43,0000.44,0000.28
2021-12-21 15:49:00,,0822.8,5.00,0.00,22.0,21.4,00.0,31.1,23.7,07.3,0000.0,0002.37,0000.43,0000.28
2021-12-21 15:50:00,,0822.8,4.99,0.00,22.1,21.4,00.0,31.1,23.8,07.3,0000.0,0002.02,0000.46,0000.28
2021-12-21 15:51:00,,0822.9,5.02,0.00,22.1,21.4,00.0,31.1,23.8,07.3,0000.0,0004.96,0000.61,0000.32
2021-12-21 15:52:00,,0822.9,4.98,0.00,22.1,21.4,00.0,31.1,23.8,07.3,0000.0,0007.51,0000.81,0000.35
2021-12-21 15:53:00,,0822.9,5.02,0.00,22.1,21.4,00.0,31.1,23.8,07.4,0000.0,0008.18,0001.03,0000.41
2021-12-21 15:54:00,,0822.9,4.99,0.00,22.1,21.4,00.0,31.1,23.8,07.4,0000.0,0008.56,0001.27,0000.48
2021-12-21 15:55:00,,0822.9,5.00,0.00,22.1,21.4,00.0,31.1,23.8,07.5,0000.0,0009.94,0001.58,0000.55
2021-12-21 15:56:00,,0823.0,5.00,0.00,22.1,21.5,00.0,31.1,23.8,07.4,0000.0,0010.57,0001.75,0000.60
2021-12-21 15:57:00,,0823.0,4.99,0.00,22.1,21.5,00.0,31.1,23.8,07.4,0000.0,0010.87,0001.84,0000.65
2021-12-21 15:58:00,,0823.0,5.00,0.00,22.1,21.5,00.0,31.1,23.9,07.4,0000.0,0011.38,0002.00,0000.72
2021-12-21 15:59:00,,0823.0,5.00,0.00,22.1,21.5,00.0,31.1,23.9,07.5,0000.0,0012.23,0002.24,0000.79
